Lid_Strength_Index
10 9 9 9 7 7 6 6 6 5 6 6 6 6 6 6 6 6 6 7 6 5 5 5 6 6 6 6 5 5 5 6 5 6 5 6 5 5 5 4 2 3 2
10 10 9 9 8 7 7 6 6 7 7 6 6 6 6 6 7 7 7 7 7 6 7 7 7 7 7 7 7 6 6 6 5 7 7 8 7 6 5 5 4 4 3
11 10 9 9 8 8 8 8 8 8 8 8 8 8 8 8 8 8 8 8 8 7 8 8 9 9 8 8 8 8 7 7 6 6 6 8 9 6 6 6 5 5 3
10 9 10 10 9 9 9 9 8 8 8 8 9 9 10 10 10 10 10 9 9 8 8 8 9 9 9 9 9 8 8 8 8 7 5 6 6 7 8 7 6 6 5
10 10 10 9 9 10 10 10 9 9 9 10 10 11 11 11 11 11 11 10 10 9 9 9 10 10 9 10 10 10 10 9 8 8 7 8 7 7 8 9 8 6 6
11 11 10 10 10 10 10 10 10 10 10 10 11 11 11 11 11 11 11 11 11 10 10 9 10 10 10 10 10 10 10 10 9 9 9 8 8 8 8 8 8 8 7
12 11 11 10 10 10 10 10 10 10 10 10 11 11 11 11 11 12 12 12 11 11 10 10 10 10 10 10 10 10 10 10 10 10 9 8 8 7 7 7 8 8 7
12 11 11 10 10 10 11 11 11 10 10 10 11 11 11 11 11 11 11 11 11 11 10 10 10 10 10 10 10 10 10 10 10 11 10 9 9 7 7 7 8 10 9
12 11 11 11 11 11 11 11 11 11 10 11 11 11 11 11 11 11 11 11 11 10 10 10 10 10 10 10 10 11 11 11 10 10 10 9 8 8 8 7 8 8 11
12 12 12 12 12 11 11 11 11 11 11 11 11 11 11 11 11 11 11 11 11 11 10 10 10 10 10 10 10 11 10 11 10 10 10 10 9 9 9 8 8 8 8
13 14 14 13 12 12 12 12 12 12 12 12 12 12 12 11 11 11 11 10 10 10 10 10 10 10 10 10 10 11 10 11 10 10 10 10 9 9 8 9 9 8 8
14 14 14 15 15 15 14 14 13 13 13 13 13 13 12 12 12 12 11 10 10 9 10 10 10 10 10 10 10 10 10 10 10 10 10 9 8 8 9 9 9 9 8
14 15 16 17 17 17 16 16 15 14 13 13 13 13 13 13 13 12 11 10 10 10 10 10 10 9 8 9 9 9 9 9 9 9 9 9 8 8 9 9 10 9 7
14 17 17 17 18 17 17 16 16 15 14 14 14 14 13 13 12 12 11 10 9 9 9 8 8 8 8 8 8 8 8 8 8 8 7 7 7 7 8 8 9 8 9
17 18 18 18 18 17 17 16 15 15 14 14 13 13 12 12 12 11 11 10 10 9 8 8 7 7 7 7 8 7 7 7 7 7 7 6 5 4 4 6 7 8 8
18 18 17 17 17 17 16 15 15 14 14 14 13 12 12 11 11 11 10 10 9 9 8 8 7 7 7 4 3 3 5 6 5 6 5 5 4 4 2 2 3 4 7
18 18 17 17 17 16 15 15 14 14 14 13 12 12 12 11 11 10 10 10 9 8 8 8 7 7 6 3 2 1 3 4 4 4 4 4 3 3 4 3 2 3 3
17 16 16 16 15 15 14 14 13 13 13 13 12 12 11 11 11 10 10 9 8 7 7 7 7 7 6 3 2 1 3 3 3 4 3 4 3 3 3 4 5 5 5
16 16 15 15 15 14 14 14 14 14 13 13 12 11 11 11 10 9 9 8 7 7 7 6 6 7 6 3 2 2 4 4 4 3 3 3 3 2 1 3 4 4 4
15 15 15 15 15 15 14 14 14 13 13 12 11 10 9 9 9 8 8 7 7 7 6 6 6 5 6 4 2 2 4 4 4 3 3 1 1 0 0 2 3 4 3
15 15 15 15 14 14 14 14 13 12 11 10 9 9 8 8 7 7 7 7 8 7 7 7 7 6 6 6 3 2 4 4 4 4 4 3 1 0 0 0 2 2 2
15 14 15 14 13 13 13 13 12 10 10 10 9 9 8 8 7 8 8 8 8 8 8 8 8 7 7 5 4 2 2 2 3 4 3 3 1 0 0 0 0 0 0
15 14 15 14 13 13 12 12 11 10 10 10 9 9 8 8 8 8 8 8 7 8 8 8 8 8 7 6 3 2 2 1 3 3 2 0 0 0 0 0 0 0 3
15 14 15 14 13 12 11 11 11 10 10 9 9 8 9 8 8 8 7 7 8 8 8 8 8 8 7 6 6 6 6 4 3 3 4 2 1 1 2 2 2 3 4
15 14 14 14 13 11 11 11 9 9 9 9 9 9 9 9 8 8 8 8 8 7 8 7 7 7 7 6 4 4 4 5 5 4 5 6 6 5 5 5 5 6 6
14 14 13 13 12 11 10 9 8 8 9 9 9 9 9 8 8 9 9 6 6 5 5 5 5 5 4 3 3 3 3 2 2 4 5 5 5 5 5 5 5 6 5